Wind_Speed
68 72 75 83 84 90 97 100 99 96 94 89 94 94 92 91 85 85 83 81 79 78 74 74 77 74 75 78 79 76 78 71 70 74 79 77 76 80 79 78 76 75 75 74 69 65 67 66 62
62 66 67 73 74 88 91 99 100 95 93 91 92 93 93 91 89 86 85 81 80 76 75 74 73 76 73 75 77 77 72 73 74 80 76 77 75 76 75 77 76 73 74 68 64 63 60 58 60
59 63 64 66 70 80 88 95 95 91 92 93 92 94 94 93 90 85 83 84 76 75 73 71 70 71 64 64 67 68 72 78 80 79 77 74 74 77 77 76 75 74 70 65 57 57 58 55 59
53 57 61 61 66 75 88 88 85 87 92 92 89 90 91 88 87 83 82 78 71 63 62 60 59 58 57 59 63 66 74 76 78 77 76 75 76 72 70 67 67 66 57 57 55 55 53 60 61
44 52 56 58 67 82 79 73 76 74 79 84 85 84 80 83 83 82 73 68 55 56 50 44 51 53 53 57 61 64 71 70 73 73 73 70 61 53 57 64 58 51 51 55 57 58 61 62 69
37 46 53 61 69 63 63 65 60 64 70 67 74 75 71 71 72 69 60 51 31 18 25 34 46 45 50 53 59 63 63 63 67 62 58 53 57 61 61 53 51 47 51 56 60 64 67 71 73
32 45 57 64 57 53 49 49 54 57 50 58 65 63 60 62 55 50 47 34 32 23 22 47 47 50 49 49 53 54 58 64 61 61 59 57 57 53 51 52 55 54 57 62 64 65 70 71 75
30 41 51 48 44 44 38 41 43 48 56 59 59 49 44 47 41 36 34 36 52 43 24 37 31 45 35 39 51 57 61 65 61 57 59 54 50 50 51 53 55 60 65 65 65 69 74 78 81
37 44 39 36 35 39 34 37 40 40 43 46 46 43 40 39 29 23 25 36 48 63 61 51 54 39 41 51 57 60 59 66 61 61 55 49 49 48 54 56 57 62 57 68 69 74 79 76 76
35 37 33 37 29 23 28 34 37 43 44 46 43 29 26 24 20 21 25 34 50 62 62 61 59 57 54 66 63 72 62 64 61 48 51 49 51 57 57 57 62 68 70 72 72 69 78 83 80
32 30 34 29 25 22 27 28 32 35 36 26 24 27 28 19 20 24 28 27 46 52 51 54 61 59 67 64 61 61 68 69 67 61 61 55 54 57 60 58 61 63 70 76 81 84 84 87 90
31 30 28 24 28 29 30 33 35 33 24 29 30 34 36 29 20 18 24 32 32 38 44 34 53 67 61 53 57 62 66 59 63 68 63 68 67 61 70 71 72 81 81 82 88 94 95 98 104
27 27 24 22 31 31 31 36 40 32 26 39 33 34 42 45 33 31 28 35 35 38 42 50 55 59 61 56 59 61 65 69 70 69 72 73 78 76 79 83 87 87 90 92 99 103 106 103 94
20 26 25 27 33 35 40 32 36 33 35 38 35 41 49 48 45 44 39 31 38 39 37 44 57 55 62 65 68 64 61 66 72 74 78 81 81 83 86 91 94 96 98 99 90 89 91 96 98
12 14 29 34 36 36 36 33 26 30 47 42 37 45 50 46 49 50 45 48 48 43 42 43 58 62 63 69 77 70 71 76 82 84 86 84 87 91 93 94 94 95 94 97 93 98 92 91 85
23 28 29 32 36 37 37 31 28 28 27 38 40 43 46 52 49 43 43 45 50 54 55 50 52 56 64 71 72 76 74 77 79 86 87 90 89 91 94 92 87 86 87 87 88 87 83 85 86
27 32 34 32 38 41 35 27 28 24 24 26 32 37 46 47 53 50 48 50 50 49 49 52 51 56 56 59 65 74 83 86 92 77 78 83 80 79 78 81 83 80 79 76 78 79 80 78 77
28 37 38 35 36 34 34 26 22 21 25 29 30 36 52 56 44 50 55 52 48 49 51 53 60 57 56 57 56 58 63 70 75 73 74 77 78 81 82 77 76 75 74 74 73 73 74 75 76
30 34 37 35 29 26 33 24 22 25 26 27 29 31 43 55 54 50 48 51 53 53 52 55 54 52 51 50 49 51 54 61 65 69 72 72 75 77 74 72 69 68 69 69 70 71 74 77 79
29 38 35 31 29 29 27 29 29 31 26 25 24 27 34 41 45 50 47 45 44 42 39 43 45 47 50 50 52 55 57 59 61 64 66 67 69 68 66 64 65 65 67 70 73 75 79 82 84
31 27 26 24 27 25 26 27 27 31 32 31 31 29 31 36 32 32 35 39 41 36 38 39 39 44 47 47 51 53 55 55 55 54 56 58 59 60 61 63 66 67 69 73 76 80 84 86 85
28 26 25 26 26 28 27 26 26 30 30 30 33 37 33 30 33 35 40 46 42 36 36 35 36 42 43 43 44 44 45 46 48 53 56 58 60 62 65 67 68 70 73 76 81 85 87 87 86
28 27 30 27 25 26 28 27 29 25 25 27 32 34 35 38 34 37 34 36 26 28 31 32 29 33 35 35 35 39 42 46 50 55 59 61 64 69 70 71 72 73 77 82 87 89 88 88 89
31 30 26 26 24 23 25 25 26 29 31 30 30 33 37 39 39 38 32 26 25 27 28 25 33 32 33 36 38 41 46 51 55 59 61 62 65 64 64 68 71 76 81 86 89 88 88 88 90
28 28 30 30 31 29 27 26 27 26 28 30 32 30 30 32 40 39 32 26 20 21 24 29 32 34 36 39 43 44 48 52 55 57 61 63 64 63 66 72 77 80 83 88 89 89 89 91 95
25 31 32 31 32 31 29 27 23 26 29 32 30 26 27 29 29 25 22 23 21 25 29 30 33 37 40 43 47 48 49 52 57 59 60 62 62 67 72 78 81 84 88 92 89 90 92 95 103
27 25 26 25 29 30 28 26 25 28 28 28 30 26 22 23 25 28 29 27 26 27 29 33 35 40 45 47 48 53 56 60 61 60 62 66 68 72 77 80 84 88 92 90 91 92 97 103 106
26 26 27 29 29 31 27 26 30 27 26 27 28 25 22 22 23 27 28 28 30 32 33 37 40 43 44 49 54 56 60 61 61 63 69 73 75 80 83 85 90 92 92 94 95 99 105 106 103
22 27 27 28 31 33 32 27 29 26 24 24 25 22 20 22 25 24 25 30 33 35 37 39 42 46 48 52 57 61 63 62 63 70 76 80 82 84 87 90 94 92 95 98 102 106 106 103 102
26 34 32 32 32 34 34 28 26 22 20 20 22 25 25 24 26 27 33 35 36 39 40 42 44 46 51 57 61 63 64 66 69 75 80 83 86 89 92 93 92 93 98 103 104 103 102 101 100
Wind_Direction
255 252 249 245 243 244 244 245 246 248 249 248 252 255 258 261 262 264 266 265 265 267 269 270 274 272 275 278 280 278 281 284 281 279 282 283 279 282 283 282 282 282 282 280 281 284 286 290 290
251 250 246 243 239 240 242 243 244 246 249 249 249 253 256 258 259 260 262 263 268 270 272 272 272 276 276 275 274 278 281 275 275 279 280 279 278 279 281 281 280 280 282 282 285 288 289 283 281
246 246 241 241 239 238 240 242 244 246 248 247 248 251 252 256 258 260 263 266 268 271 274 275 275 273 271 272 270 274 271 273 275 275 276 276 279 282 281 278 282 281 280 286 287 286 281 288 286
246 244 241 238 237 237 236 237 241 242 246 248 250 250 254 257 259 259 262 271 278 281 276 282 280 277 274 274 268 266 266 266 269 272 274 275 276 276 276 278 277 283 287 287 287 281 279 286 287
245 238 237 237 235 234 237 239 240 243 246 249 251 252 254 256 258 261 266 269 274 285 285 278 271 270 270 265 264 262 262 264 266 271 274 276 273 271 276 280 283 287 288 284 279 276 275 279 281
237 234 231 234 235 238 239 239 242 242 246 249 248 249 251 253 256 261 264 266 276 257 272 263 264 264 263 269 270 267 265 264 271 274 278 277 278 283 284 278 273 276 275 274 280 279 281 287 281
228 228 228 233 237 239 242 238 236 238 237 242 248 248 250 253 256 260 259 221 210 204 241 253 259 265 272 280 270 271 274 271 267 272 277 280 282 281 283 278 272 273 278 287 286 290 289 286 284
222 223 225 233 235 243 236 236 233 234 233 241 244 247 241 254 254 249 243 221 212 205 208 245 266 277 281 260 261 268 280 273 276 277 280 280 281 284 283 279 275 271 277 283 282 287 289 284 285
207 210 215 223 226 230 237 235 227 223 228 235 235 242 247 251 234 217 228 222 221 215 219 230 227 247 249 245 264 273 269 278 279 278 284 280 275 278 277 275 278 275 284 282 283 284 289 287 286
203 206 199 211 216 231 221 221 220 220 223 228 243 242 209 219 213 226 225 221 221 221 220 231 235 229 239 251 254 256 262 262 269 266 266 268 269 270 279 285 280 281 288 289 287 283 289 288 291
192 197 196 200 193 193 197 209 205 210 218 227 226 198 187 200 221 225 229 225 218 215 227 237 231 223 228 242 250 259 262 263 265 266 270 269 273 277 277 277 275 281 282 283 287 288 289 289 293
191 193 198 194 175 188 190 190 194 209 220 183 185 190 190 183 180 245 238 235 224 230 231 236 229 231 235 244 253 258 258 259 259 266 262 268 268 267 274 273 281 278 279 284 283 292 291 291 290
191 200 193 190 185 193 188 194 203 199 185 172 176 191 189 187 185 212 209 219 221 219 220 221 221 228 230 240 245 249 256 262 265 268 262 260 269 273 272 279 281 286 286 287 290 291 290 293 295
195 204 198 205 204 197 192 186 189 182 181 180 180 192 190 198 198 207 216 228 241 241 249 235 220 230 231 241 244 246 253 255 258 263 262 268 272 270 275 280 281 285 286 290 294 293 291 292 294
196 194 191 190 187 183 193 192 186 186 186 191 192 197 197 209 207 208 220 229 236 240 252 238 230 232 236 238 243 247 249 250 257 261 266 268 274 276 280 281 282 287 290 288 288 293 296 296 297
193 195 182 180 183 187 189 195 195 198 209 201 198 200 207 214 212 216 225 231 237 235 233 235 240 243 245 246 250 252 259 262 266 269 266 273 281 280 282 281 288 290 290 293 294 294 295 296 296
185 184 184 193 193 195 187 196 219 214 215 206 207 216 221 217 222 223 226 232 231 233 238 237 245 247 251 261 258 258 259 263 263 272 272 277 285 288 288 286 289 292 292 291 292 294 295 297 298
196 190 196 198 200 203 190 201 228 224 229 228 234 223 220 223 227 231 236 241 250 258 261 264 264 264 264 263 262 265 268 272 274 276 279 282 285 283 287 290 289 289 290 290 293 294 296 298 300
205 205 203 199 202 204 204 225 241 240 240 235 238 230 218 223 238 238 241 251 259 264 265 263 263 265 261 263 272 274 277 277 278 278 280 282 283 286 286 287 289 289 290 292 294 295 297 299 300
201 198 207 206 211 210 214 217 225 226 228 230 236 231 235 230 239 244 249 247 254 264 264 266 267 268 269 269 272 273 275 276 277 278 280 281 280 282 284 285 286 289 290 293 296 298 300 301 302
207 213 215 223 211 225 223 226 235 229 239 245 249 240 235 239 256 260 250 255 275 270 267 268 270 270 270 272 272 274 275 277 278 277 277 278 280 281 283 285 287 290 295 298 300 301 302 303 303
213 213 216 214 219 217 230 232 237 238 243 244 243 249 248 249 254 263 272 273 273 274 270 268 269 270 272 272 274 276 277 278 279 280 281 281 281 283 285 287 293 294 298 301 302 302 303 303 303
207 213 224 227 228 229 232 242 241 240 243 251 253 256 262 261 258 261 259 264 282 281 281 276 274 271 275 275 274 274 277 280 282 282 283 285 285 286 289 292 294 299 301 304 305 305 306 305 304
221 219 222 227 231 235 239 244 246 247 250 246 245 252 254 259 260 254 255 254 283 283 280 273 278 279 281 280 278 277 278 279 279 280 282 285 290 293 296 299 301 303 306 307 307 308 307 306 305
233 234 229 236 237 245 246 249 255 249 254 257 248 251 252 254 249 248 257 255 281 277 271 277 279 278 280 282 281 284 284 282 285 290 294 296 297 300 301 302 305 307 308 309 308 307 308 307 306
234 236 233 238 247 250 251 262 255 261 254 261 261 257 254 255 260 266 263 274 285 278 272 270 271 272 276 282 289 294 296 300 305 306 304 301 300 303 305 306 308 308 308 309 309 309 309 309 308
241 240 243 246 253 255 255 257 255 261 263 263 267 268 261 259 269 271 283 287 285 277 275 276 281 278 284 289 296 300 303 305 310 311 309 308 309 310 310 310 311 309 310 311 311 310 310 309 308
249 244 247 249 252 261 255 252 259 247 258 267 266 270 274 276 278 279 280 283 279 279 281 285 288 291 289 297 302 302 304 308 309 311 311 312 312 312 312 312 311 312 312 311 311 311 310 308 308
263 262 247 248 260 267 263 258 258 257 259 255 262 265 265 267 269 273 271 270 273 279 286 289 290 295 298 300 300 302 305 308 310 312 312 314 314 314 313 312 312 313 313 312 312 310 310 311 310
254 261 268 259 263 262 263 260 261 259 250 252 244 253 257 263 266 268 270 274 281 287 290 292 296 296 295 299 302 305 309 310 310 312 314 314 315 314 313 312 313 314 313 313 312 314 313 311 310
Height
10704 10708 10716 10727 10736 10741 10744 10749 10752 10765 10779 10790 10784 10784 10792 10793 10803 10809 10812 10818 10821 10827 10834 10835 10832 10834 10834 10832 10832 10828 10826 10827 10826 10823 10822 10821 10817 10815 10811 10808 10806 10805 10804 10802 10800 10800 10800 10800 10800
10689 10692 10702 10709 10718 10721 10726 10729 10731 10754 10766 10774 10777 10778 10778 10781 10789 10797 10800 10808 10810 10819 10823 10825 10823 10821 10823 10821 10818 10818 10818 10818 10815 10811 10810 10807 10805 10802 10799 10795 10793 10792 10789 10788 10788 10788 10788 10786 10786
10675 10678 10686 10697 10703 10707 10708 10708 10725 10746 10749 10754 10760 10764 10767 10769 10775 10786 10791 10794 10807 10812 10814 10816 10815 10810 10809 10809 10808 10806 10805 10804 10800 10796 10795 10795 10793 10790 10787 10783 10782 10781 10779 10778 10776 10778 10777 10774 10773
10662 10667 10674 10682 10689 10690 10674 10695 10719 10729 10732 10738 10748 10755 10759 10766 10771 10779 10784 10792 10798 10801 10801 10796 10792 10791 10795 10793 10794 10795 10793 10790 10787 10784 10787 10784 10781 10779 10777 10774 10772 10770 10769 10768 10767 10768 10766 10762 10761
10649 10654 10663 10669 10662 10649 10672 10700 10709 10723 10726 10733 10740 10746 10749 10752 10760 10770 10784 10791 10788 10792 10790 10785 10779 10780 10779 10779 10783 10780 10778 10779 10776 10774 10774 10773 10771 10767 10766 10764 10762 10761 10760 10760 10758 10755 10752 10750 10746
10638 10643 10648 10643 10641 10666 10680 10693 10708 10716 10717 10721 10725 10727 10737 10744 10754 10764 10776 10787 10787 10782 10778 10773 10764 10771 10767 10772 10769 10768 10767 10765 10765 10764 10762 10761 10761 10758 10757 10755 10753 10752 10751 10749 10746 10744 10742 10740 10735
10628 10631 10632 10628 10649 10660 10678 10689 10695 10703 10707 10710 10709 10719 10727 10734 10749 10756 10760 10770 10773 10775 10774 10762 10759 10765 10760 10760 10757 10756 10757 10757 10757 10755 10754 10754 10751 10748 10747 10743 10744 10743 10739 10737 10735 10732 10730 10727 10723
10619 10622 10621 10636 10650 10656 10672 10685 10694 10697 10696 10700 10704 10710 10722 10731 10739 10744 10746 10755 10761 10760 10762 10759 10767 10758 10758 10755 10749 10746 10744 10744 10746 10747 10745 10744 10740 10738 10738 10736 10737 10732 10728 10726 10726 10723 10720 10714 10713
10608 10609 10624 10633 10645 10652 10668 10676 10680 10683 10687 10692 10694 10705 10719 10724 10729 10735 10741 10743 10747 10751 10747 10749 10753 10757 10755 10752 10746 10742 10738 10735 10736 10736 10734 10734 10733 10731 10728 10728 10728 10722 10720 10717 10713 10711 10707 10701 10698
10603 10610 10623 10628 10643 10656 10664 10666 10671 10674 10679 10683 10694 10706 10711 10714 10722 10727 10730 10734 10738 10741 10745 10746 10744 10743 10746 10742 10739 10732 10731 10729 10730 10727 10725 10725 10723 10720 10719 10719 10717 10714 10709 10705 10701 10698 10693 10686 10683
10603 10610 10617 10630 10644 10648 10654 10659 10664 10666 10671 10686 10693 10698 10703 10708 10712 10716 10719 10723 10731 10736 10737 10737 10737 10737 10732 10732 10732 10729 10729 10726 10723 10719 10718 10716 10716 10713 10711 10708 10706 10703 10698 10693 10688 10684 10678 10673 10666
10604 10611 10620 10630 10640 10643 10650 10655 10659 10664 10674 10685 10686 10689 10696 10703 10705 10711 10710 10713 10717 10723 10724 10726 10727 10726 10722 10724 10726 10721 10718 10716 10714 10709 10707 10705 10704 10699 10696 10695 10695 10689 10682 10679 10675 10668 10666 10658 10652
10611 10615 10623 10631 10638 10643 10648 10651 10657 10663 10672 10678 10681 10685 10689 10691 10698 10701 10698 10699 10702 10706 10709 10711 10714 10713 10715 10714 10713 10712 10712 10708 10704 10702 10698 10697 10694 10688 10685 10681 10676 10672 10669 10664 10658 10652 10646 10640 10633
10615 10619 10626 10630 10633 10640 10645 10652 10656 10660 10669 10673 10675 10681 10684 10685 10687 10691 10693 10695 10696 10699 10702 10703 10703 10705 10705 10704 10700 10701 10703 10699 10696 10692 10688 10683 10681 10678 10675 10671 10664 10662 10655 10650 10642 10636 10629 10623 10615
10617 10620 10623 10628 10632 10638 10644 10648 10654 10659 10662 10666 10671 10678 10680 10679 10678 10683 10687 10690 10692 10692 10697 10697 10696 10695 10694 10693 10690 10692 10691 10690 10682 10679 10678 10672 10668 10665 10662 10657 10654 10648 10642 10634 10627 10619 10610 10606 10597
10614 10617 10624 10629 10634 10638 10641 10646 10649 10654 10657 10661 10666 10668 10672 10671 10673 10679 10682 10686 10685 10685 10688 10688 10687 10687 10689 10688 10683 10683 10681 10678 10675 10673 10670 10664 10655 10652 10648 10642 10639 10635 10627 10619 10611 10603 10596 10589 10582
10611 10616 10620 10624 10630 10635 10638 10643 10643 10651 10656 10660 10663 10666 10668 10668 10669 10673 10674 10674 10676 10677 10677 10678 10679 10679 10678 10675 10672 10673 10671 10666 10664 10659 10658 10652 10646 10640 10633 10629 10624 10620 10613 10606 10598 10590 10582 10574 10567
10612 10613 10616 10620 10628 10633 10637 10638 10639 10647 10651 10657 10658 10661 10663 10662 10662 10664 10666 10666 10666 10667 10669 10671 10670 10666 10666 10664 10661 10661 10657 10654 10651 10648 10643 10639 10634 10629 10623 10617 10612 10605 10599 10592 10584 10576 10569 10563 10553
10613 10617 10618 10623 10629 10633 10637 10639 10640 10644 10647 10650 10652 10653 10657 10656 10651 10655 10660 10662 10663 10664 10665 10663 10660 10658 10657 10655 10653 10651 10649 10645 10640 10637 10633 10628 10624 10618 10613 10607 10599 10592 10585 10578 10570 10564 10556 10548 10539
10612 10614 10619 10624 10627 10631 10637 10639 10638 10641 10644 10646 10646 10648 10650 10653 10651 10652 10652 10654 10656 10656 10657 10653 10652 10649 10646 10647 10643 10642 10638 10635 10632 10627 10623 10619 10613 10607 10601 10594 10588 10581 10573 10565 10557 10549 10540 10532 10522
10613 10618 10619 10621 10625 10629 10634 10635 10637 10641 10640 10640 10640 10640 10640 10643 10644 10644 10646 10647 10646 10644 10645 10644 10643 10639 10636 10636 10632 10631 10627 10623 10620 10617 10613 10608 10602 10596 10589 10582 10576 10569 10560 10552 10543 10533 10523 10512 10503
10613 10614 10615 10617 10620 10625 10625 10629 10632 10633 10635 10634 10633 10635 10635 10638 10642 10639 10637 10636 10635 10634 10632 10634 10634 10628 10626 10626 10622 10620 10618 10615 10610 10605 10602 10597 10590 10582 10575 10569 10562 10555 10546 10537 10527 10516 10506 10494 10482
10608 10609 10611 10615 10618 10620 10623 10625 10628 10630 10632 10632 10631 10630 10630 10630 10638 10637 10632 10629 10626 10624 10622 10623 10624 10623 10620 10618 10618 10614 10609 10606 10602 10596 10590 10585 10578 10570 10562 10554 10548 10541 10530 10519 10507 10496 10485 10474 10462
10604 10607 10610 10612 10613 10616 10617 10619 10620 10622 10623 10625 10627 10627 10626 10625 10627 10626 10629 10626 10623 10620 10617 10618 10616 10615 10614 10612 10610 10608 10605 10599 10594 10588 10582 10574 10565 10557 10549 10540 10533 10524 10513 10500 10487 10476 10465 10452 10439
10604 10606 10607 10609 10610 10611 10613 10614 10615 10616 10616 10617 10618 10622 10620 10620 10618 10620 10621 10620 10617 10616 10615 10613 10610 10608 10606 10605 10602 10600 10595 10590 10584 10577 10568 10559 10551 10544 10536 10525 10516 10505 10495 10481 10467 10455 10445 10432 10417
10598 10601 10603 10604 10605 10606 10607 10609 10611 10612 10610 10606 10608 10615 10616 10613 10611 10610 10611 10613 10612 10611 10610 10607 10604 10602 10600 10595 10590 10584 10579 10573 10566 10559 10551 10542 10536 10528 10518 10507 10496 10486 10473 10460 10447 10435 10422 10409 10393
10591 10594 10597 10599 10599 10599 10603 10604 10605 10601 10600 10598 10598 10604 10607 10604 10603 10603 10603 10603 10602 10602 10601 10599 10595 10591 10587 10583 10578 10571 10563 10557 10551 10543 10534 10525 10517 10509 10498 10487 10475 10463 10451 10439 10427 10415 10402 10387 10370
10587 10589 10590 10592 10593 10594 10597 10599 10597 10596 10594 10593 10593 10596 10598 10597 10597 10596 10595 10594 10594 10593 10593 10589 10584 10580 10574 10569 10565 10559 10552 10545 10537 10527 10516 10508 10500 10490 10478 10468 10455 10442 10428 10416 10406 10393 10379 10363 10347
10582 10583 10584 10586 10585 10584 10588 10591 10589 10590 10591 10591 10588 10590 10592 10594 10594 10593 10592 10590 10588 10587 10584 10581 10576 10571 10564 10559 10552 10546 10539 10531 10522 10511 10500 10490 10481 10470 10459 10447 10434 10422 10407 10393 10381 10367 10351 10334 10318
10576 10576 10577 10579 10577 10577 10577 10582 10583 10585 10587 10587 10586 10585 10586 10588 10589 10589 10587 10583 10579 10576 10574 10571 10567 10562 10557 10551 10541 10532 10523 10514 10506 10495 10485 10474 10464 10453 10441 10428 10414 10402 10388 10372 10357 10341 10325 10309 10292